星链-36073(STARLINK-36073)

导读

STARLINK-36073是美国SpaceX公司星链(Starlink)星座的成员卫星,于2025年12月31日发射升空,部署在近地轨道。作为全球规模最大的低轨卫星互联网星座组成部分,它将与其他星链卫星协同,为全球偏远、基础设施匮乏地区提供高速低延迟宽带互联网服务,支持视频通话、在线办公等多元联网需求,持续推动星链全球网络覆盖与服务能力拓展。

基本信息
目录编号:
66844
目录名称:
STARLINK-36073
国际标识:
2025-280Z
轨道中心:
EARTH
卫星名称:
星链-36073
卫星全名:
星链-36073(STARLINK-36073)
卫星状态:
在轨 (已飞行193 天)
发射日期:
2025-12-02 UTC
国别 :
美国 (US)
星等 :
--
轨道信息
数据来源 国际轨道数据
星历时间: 2026-06-13T03:32:24+0800
12小时前
查看轨道信息
半长轴: 6950.175km
偏心率: 0.0002999
轨道倾角: 70.001°
近地点辐角 268.379°
升交点赤经 94.655°
平近点角 91.702°
近地点: 569.953km
远地点: 574.123km
周期: 96.107分钟
每日圈数: 14.98336
详细信息
固有亮度:
5
最大亮度:
2.5
卫星平台:
Starlink V1.0
覆盖范围:
全球
运营商:
太空探索技术公司
运营商所在国:
美国
制造商(研发单位):
太空探索技术公司
制造商所在国:
美国
使用方式:
暂无
卫星简介
Starlink 计划是 SpaceX 推出的全球卫星互联网项目,通过发射低轨道卫星,为全球尤其是偏远地区提供高速、低延迟的互联网服务。自 2019 年起,Starlink 已部署数千颗卫星,旨在缩小全球数字鸿沟,推动互联网普及。该项目还为军事、航空等行业提供通信支持,带来广泛经济效益。
2D轨道图
3D轨道图
轨道高度分析图
轨道倾角分析图
轨道综合分析图
查看轨道综合分析图